User: anonymous   Login
Location: Unspecified
(0.0000°N, 0.0000°E)
Time: 23:05:20
(UTC+00:00)
Language:

Oscar 10/S400 - Orbit

View from above orbital plane
View from above orbital plane
View from above satellite
View from above satellite

Ground track
Ground track

The orbit data is extracted from the following two-line orbital elements,

1 14129U 83058B   18343.01095330 -.00000046  00000-0  00000+0 0  9991
2 14129  26.7303 307.5409 6014539  90.0036 334.6655  2.05868631238930
Epoch (UTC): 09 December 2018 00:15:46
Eccentricity: 0.6014539
inclination: 26.7303°
perigee height: 4025 km
apogee height: 35423 km
right ascension of ascending node: 307.5409°
argument of perigee: 90.0036°
revolutions per day: 2.05868631
mean anomaly at epoch: 334.6655°
orbit number at epoch: 23893

The dashed part of the orbit path shows where the satellite is in the earth's shadow,  

DLR